Year,Month,Day,Hour,Minute,Value (Times are PST for temperature in C)
2012,07,12,00,00,16.10
2012,07,12,00,01,16.10
2012,07,12,00,02,16.10
2012,07,12,00,03,16.10
2012,07,12,00,04,16.10
2012,07,12,00,05,16.10
2012,07,12,00,06,16.10
2012,07,12,00,07,16.10
2012,07,12,00,08,16.10
2012,07,12,00,09,16.10
2012,07,12,00,10,16.00
2012,07,12,00,11,15.90
2012,07,12,00,12,15.90
2012,07,12,00,13,15.90
2012,07,12,00,14,15.90
2012,07,12,00,15,15.80
2012,07,12,00,16,15.80
2012,07,12,00,17,15.80
2012,07,12,00,18,15.80
2012,07,12,00,19,15.80
2012,07,12,00,20,15.80
2012,07,12,00,21,15.80
2012,07,12,00,22,15.80
2012,07,12,00,23,15.80
2012,07,12,00,24,15.80
2012,07,12,00,25,15.80
2012,07,12,00,26,15.80
2012,07,12,00,27,15.80
2012,07,12,00,28,15.80
2012,07,12,00,29,15.70
2012,07,12,00,30,15.70
2012,07,12,00,31,15.70
2012,07,12,00,32,15.60
2012,07,12,00,33,15.60
2012,07,12,00,34,15.60
2012,07,12,00,35,15.50
2012,07,12,00,36,15.50
2012,07,12,00,37,15.50
2012,07,12,00,38,15.40
2012,07,12,00,39,15.40
2012,07,12,00,40,15.40
2012,07,12,00,41,15.30
2012,07,12,00,42,15.30
2012,07,12,00,43,15.30
2012,07,12,00,44,15.30
2012,07,12,00,45,15.30
2012,07,12,00,46,15.30
2012,07,12,00,47,15.30
2012,07,12,00,48,15.30
2012,07,12,00,49,15.30
2012,07,12,00,50,15.20
2012,07,12,00,51,15.20
2012,07,12,00,52,15.20
2012,07,12,00,53,15.20
2012,07,12,00,54,15.20
2012,07,12,00,55,15.20
2012,07,12,00,56,15.20
2012,07,12,00,57,15.20
2012,07,12,00,58,15.20
2012,07,12,00,59,15.10
2012,07,12,01,00,15.10
2012,07,12,01,01,15.10
2012,07,12,01,02,15.10
2012,07,12,01,03,15.10
2012,07,12,01,04,15.10
2012,07,12,01,05,15.10
2012,07,12,01,06,15.10
2012,07,12,01,07,15.10
2012,07,12,01,08,15.10
2012,07,12,01,09,15.10
2012,07,12,01,10,15.00
2012,07,12,01,11,15.00
2012,07,12,01,12,15.00
2012,07,12,01,13,15.00
2012,07,12,01,14,14.90
2012,07,12,01,15,14.90
2012,07,12,01,16,14.90
2012,07,12,01,17,14.90
2012,07,12,01,18,15.00
2012,07,12,01,19,15.00
2012,07,12,01,20,15.00
2012,07,12,01,21,15.00
2012,07,12,01,22,14.90
2012,07,12,01,23,14.90
2012,07,12,01,24,14.90
2012,07,12,01,25,14.90
2012,07,12,01,26,14.90
2012,07,12,01,27,14.90
2012,07,12,01,28,14.80
2012,07,12,01,29,14.80
2012,07,12,01,30,14.80
2012,07,12,01,31,14.80
2012,07,12,01,32,14.80
2012,07,12,01,33,14.80
2012,07,12,01,34,14.80
2012,07,12,01,35,14.80
2012,07,12,01,36,14.80
2012,07,12,01,37,14.80
2012,07,12,01,38,14.80
2012,07,12,01,39,14.80
2012,07,12,01,40,14.80
2012,07,12,01,41,14.80
2012,07,12,01,42,14.80
2012,07,12,01,43,14.80
2012,07,12,01,44,14.70
2012,07,12,01,45,14.70
2012,07,12,01,46,14.70
2012,07,12,01,47,14.70
2012,07,12,01,48,14.60
2012,07,12,01,49,14.60
2012,07,12,01,50,14.60
2012,07,12,01,51,14.60
2012,07,12,01,52,14.60
2012,07,12,01,53,14.50
2012,07,12,01,54,14.50
2012,07,12,01,55,14.50
2012,07,12,01,56,14.50
2012,07,12,01,57,14.50
2012,07,12,01,58,14.50
2012,07,12,01,59,14.40
2012,07,12,02,00,14.40
2012,07,12,02,01,14.40
2012,07,12,02,02,14.40
2012,07,12,02,03,14.40
2012,07,12,02,04,14.40
2012,07,12,02,05,14.30
2012,07,12,02,06,14.30
2012,07,12,02,07,14.30
2012,07,12,02,08,14.30
2012,07,12,02,09,14.30
2012,07,12,02,10,14.20
2012,07,12,02,11,14.20
2012,07,12,02,12,14.20
2012,07,12,02,13,14.20
2012,07,12,02,14,14.20
2012,07,12,02,15,14.20
2012,07,12,02,16,14.20
2012,07,12,02,17,14.20
2012,07,12,02,18,14.20
2012,07,12,02,19,14.10
2012,07,12,02,20,14.10
2012,07,12,02,21,14.10
2012,07,12,02,22,14.10
2012,07,12,02,23,14.00
2012,07,12,02,24,14.00
2012,07,12,02,25,14.00
2012,07,12,02,26,14.00
2012,07,12,02,27,13.90
2012,07,12,02,28,13.90
2012,07,12,02,29,13.90
2012,07,12,02,30,13.80
2012,07,12,02,31,13.80
2012,07,12,02,32,13.80
2012,07,12,02,33,13.80
2012,07,12,02,34,13.70
2012,07,12,02,35,13.70
2012,07,12,02,36,13.70
2012,07,12,02,37,13.70
2012,07,12,02,38,13.70
2012,07,12,02,39,13.70
2012,07,12,02,40,13.60
2012,07,12,02,41,13.60
2012,07,12,02,42,13.60
2012,07,12,02,43,13.60
2012,07,12,02,44,13.60
2012,07,12,02,45,13.60
2012,07,12,02,46,13.50
2012,07,12,02,47,13.50
2012,07,12,02,48,13.50
2012,07,12,02,49,13.50
2012,07,12,02,50,13.50
2012,07,12,02,51,13.50
2012,07,12,02,52,13.40
2012,07,12,02,53,13.40
2012,07,12,02,54,13.40
2012,07,12,02,55,13.40
2012,07,12,02,56,13.40
2012,07,12,02,57,13.40
2012,07,12,02,58,13.40
2012,07,12,02,59,13.40
2012,07,12,03,00,13.40
2012,07,12,03,01,13.30
2012,07,12,03,02,13.30
2012,07,12,03,03,13.30
2012,07,12,03,04,13.30
2012,07,12,03,05,13.30
2012,07,12,03,06,13.30
2012,07,12,03,07,13.30
2012,07,12,03,08,13.30
2012,07,12,03,09,13.30
2012,07,12,03,10,13.30
2012,07,12,03,11,13.30
2012,07,12,03,12,13.30
2012,07,12,03,13,13.30
2012,07,12,03,14,13.20
2012,07,12,03,15,13.20
2012,07,12,03,16,13.20
2012,07,12,03,17,13.20
2012,07,12,03,18,13.20
2012,07,12,03,19,13.20
2012,07,12,03,20,13.20
2012,07,12,03,21,13.20
2012,07,12,03,22,13.20
2012,07,12,03,23,13.10
2012,07,12,03,24,13.10
2012,07,12,03,25,13.10
2012,07,12,03,26,13.10
2012,07,12,03,27,13.10
2012,07,12,03,28,13.10
2012,07,12,03,29,13.00
2012,07,12,03,30,13.00
2012,07,12,03,31,13.00
2012,07,12,03,32,13.00
2012,07,12,03,33,13.00
2012,07,12,03,34,13.00
2012,07,12,03,35,12.90
2012,07,12,03,36,12.90
2012,07,12,03,37,12.90
2012,07,12,03,38,12.90
2012,07,12,03,39,12.80
2012,07,12,03,40,12.80
2012,07,12,03,41,12.80
2012,07,12,03,42,12.80
2012,07,12,03,43,12.80
2012,07,12,03,44,12.80
2012,07,12,03,45,12.80
2012,07,12,03,46,12.80
2012,07,12,03,47,12.80
2012,07,12,03,48,12.80
2012,07,12,03,49,12.90
2012,07,12,03,50,12.90
2012,07,12,03,51,12.90
2012,07,12,03,52,12.90
2012,07,12,03,53,12.90
2012,07,12,03,54,12.90
2012,07,12,03,55,12.90
2012,07,12,03,56,12.90
2012,07,12,03,57,12.90
2012,07,12,03,58,12.90
2012,07,12,03,59,12.90
2012,07,12,04,00,12.90
2012,07,12,04,01,12.90
2012,07,12,04,02,12.80
2012,07,12,04,03,12.80
2012,07,12,04,04,12.80
2012,07,12,04,05,12.80
2012,07,12,04,06,12.80
2012,07,12,04,07,12.80
2012,07,12,04,08,12.80
2012,07,12,04,09,12.80
2012,07,12,04,10,12.80
2012,07,12,04,11,12.80
2012,07,12,04,12,12.80
2012,07,12,04,13,12.80
2012,07,12,04,14,12.70
2012,07,12,04,15,12.70
2012,07,12,04,16,12.70
2012,07,12,04,17,12.70
2012,07,12,04,18,12.70
2012,07,12,04,19,12.70
2012,07,12,04,20,12.70
2012,07,12,04,21,12.70
2012,07,12,04,22,12.60
2012,07,12,04,23,12.60
2012,07,12,04,24,12.60
2012,07,12,04,25,12.60
2012,07,12,04,26,12.60
2012,07,12,04,27,12.50
2012,07,12,04,28,12.50
2012,07,12,04,29,12.50
2012,07,12,04,30,12.50
2012,07,12,04,31,12.50
2012,07,12,04,32,12.40
2012,07,12,04,33,12.40
2012,07,12,04,34,12.40
2012,07,12,04,35,12.40
2012,07,12,04,36,12.40
2012,07,12,04,37,12.30
2012,07,12,04,38,12.30
2012,07,12,04,39,12.30
2012,07,12,04,40,12.30
2012,07,12,04,41,12.30
2012,07,12,04,42,12.30
2012,07,12,04,43,12.30
2012,07,12,04,44,12.30
2012,07,12,04,45,12.30
2012,07,12,04,46,12.30
2012,07,12,04,47,12.30
2012,07,12,04,48,12.30
2012,07,12,04,49,12.30
2012,07,12,04,50,12.30
2012,07,12,04,51,12.30
2012,07,12,04,52,12.30
2012,07,12,04,53,12.20
2012,07,12,04,54,12.20
2012,07,12,04,55,12.20
2012,07,12,04,56,12.20
2012,07,12,04,57,12.20
2012,07,12,04,58,12.20
2012,07,12,04,59,12.20
2012,07,12,05,00,12.20
2012,07,12,05,01,12.10
2012,07,12,05,02,12.10
2012,07,12,05,03,12.10
2012,07,12,05,04,12.10
2012,07,12,05,05,12.00
2012,07,12,05,06,12.00
2012,07,12,05,07,12.00
2012,07,12,05,08,12.00
2012,07,12,05,09,12.00
2012,07,12,05,10,12.00
2012,07,12,05,11,12.00
2012,07,12,05,12,11.90
2012,07,12,05,13,11.90
2012,07,12,05,14,11.90
2012,07,12,05,15,11.90
2012,07,12,05,16,11.90
2012,07,12,05,17,11.90
2012,07,12,05,18,11.90
2012,07,12,05,19,11.90
2012,07,12,05,20,11.90
2012,07,12,05,21,11.90
2012,07,12,05,22,11.90
2012,07,12,05,23,11.90
2012,07,12,05,24,11.90
2012,07,12,05,25,11.90
2012,07,12,05,26,11.90
2012,07,12,05,27,11.90
2012,07,12,05,28,11.90
2012,07,12,05,29,12.00
2012,07,12,05,30,12.00
2012,07,12,05,31,12.00
2012,07,12,05,32,12.00
2012,07,12,05,33,12.00
2012,07,12,05,34,12.00
2012,07,12,05,35,11.90
2012,07,12,05,36,11.90
2012,07,12,05,37,11.90
2012,07,12,05,38,11.90
2012,07,12,05,39,11.90
2012,07,12,05,40,11.90
2012,07,12,05,41,11.90
2012,07,12,05,42,11.90
2012,07,12,05,43,11.90
2012,07,12,05,44,11.90
2012,07,12,05,45,11.90
2012,07,12,05,46,11.90
2012,07,12,05,47,11.90
2012,07,12,05,48,12.00
2012,07,12,05,49,12.00
2012,07,12,05,50,12.00
2012,07,12,05,51,12.00
2012,07,12,05,52,12.00
2012,07,12,05,53,12.00
2012,07,12,05,54,12.00
2012,07,12,05,55,12.10
2012,07,12,05,56,12.10
2012,07,12,05,57,12.10
2012,07,12,05,58,12.10
2012,07,12,05,59,12.10
2012,07,12,06,00,12.10
2012,07,12,06,01,12.10
2012,07,12,06,02,12.20
2012,07,12,06,03,12.20
2012,07,12,06,04,12.20
2012,07,12,06,05,12.30
2012,07,12,06,06,12.30
2012,07,12,06,07,12.30
2012,07,12,06,08,12.30
2012,07,12,06,09,12.40
2012,07,12,06,10,12.40
2012,07,12,06,11,12.50
2012,07,12,06,12,12.60
2012,07,12,06,13,12.60
2012,07,12,06,14,12.60
2012,07,12,06,15,12.70
2012,07,12,06,16,12.70
2012,07,12,06,17,12.70
2012,07,12,06,18,12.70
2012,07,12,06,19,12.80
2012,07,12,06,20,12.80
2012,07,12,06,21,12.80
2012,07,12,06,22,12.90
2012,07,12,06,23,12.90
2012,07,12,06,24,12.90
2012,07,12,06,25,13.00
2012,07,12,06,26,13.00
2012,07,12,06,27,13.10
2012,07,12,06,28,13.20
2012,07,12,06,29,13.20
2012,07,12,06,30,13.30
2012,07,12,06,31,13.30
2012,07,12,06,32,13.30
2012,07,12,06,33,13.30
2012,07,12,06,34,13.30
2012,07,12,06,35,13.40
2012,07,12,06,36,13.40
2012,07,12,06,37,13.40
2012,07,12,06,38,13.50
2012,07,12,06,39,13.50
2012,07,12,06,40,13.60
2012,07,12,06,41,13.60
2012,07,12,06,42,13.60
2012,07,12,06,43,13.70
2012,07,12,06,44,13.70
2012,07,12,06,45,13.70
2012,07,12,06,46,13.80
2012,07,12,06,47,13.80
2012,07,12,06,48,13.80
2012,07,12,06,49,13.80
2012,07,12,06,50,13.80
2012,07,12,06,51,13.80
2012,07,12,06,52,13.90
2012,07,12,06,53,13.90
2012,07,12,06,54,14.00
2012,07,12,06,55,14.00
2012,07,12,06,56,14.10
2012,07,12,06,57,14.10
2012,07,12,06,58,14.10
2012,07,12,06,59,14.20
2012,07,12,07,00,14.20
2012,07,12,07,01,14.20
2012,07,12,07,02,14.20
2012,07,12,07,03,14.20
2012,07,12,07,04,14.20
2012,07,12,07,05,14.20
2012,07,12,07,06,14.20
2012,07,12,07,07,14.20
2012,07,12,07,08,14.20
2012,07,12,07,09,14.20
2012,07,12,07,10,14.20
2012,07,12,07,11,14.20
2012,07,12,07,12,14.20
2012,07,12,07,13,14.20
2012,07,12,07,14,14.30
2012,07,12,07,15,14.40
2012,07,12,07,16,14.50
2012,07,12,07,17,14.50
2012,07,12,07,18,14.50
2012,07,12,07,19,14.60
2012,07,12,07,20,14.60
2012,07,12,07,21,14.60
2012,07,12,07,22,14.70
2012,07,12,07,23,14.70
2012,07,12,07,24,14.80
2012,07,12,07,25,15.00
2012,07,12,07,26,15.00
2012,07,12,07,27,15.10
2012,07,12,07,28,15.10
2012,07,12,07,29,15.20
2012,07,12,07,30,15.30
2012,07,12,07,31,15.30
2012,07,12,07,32,15.40
2012,07,12,07,33,15.40
2012,07,12,07,34,15.40
2012,07,12,07,35,15.40
2012,07,12,07,36,15.50
2012,07,12,07,37,15.60
2012,07,12,07,38,15.70
2012,07,12,07,39,15.80
2012,07,12,07,40,16.00
2012,07,12,07,41,16.10
2012,07,12,07,42,16.10
2012,07,12,07,43,16.10
2012,07,12,07,44,16.10
2012,07,12,07,45,16.10
2012,07,12,07,46,16.10
2012,07,12,07,47,16.10
2012,07,12,07,48,16.10
2012,07,12,07,49,16.10
2012,07,12,07,50,16.10
2012,07,12,07,51,16.10
2012,07,12,07,52,16.10
2012,07,12,07,53,16.20
2012,07,12,07,54,16.20
2012,07,12,07,55,16.20
2012,07,12,07,56,16.20
2012,07,12,07,57,16.20
2012,07,12,07,58,16.10
2012,07,12,07,59,16.20
2012,07,12,08,00,16.20
2012,07,12,08,01,16.30
2012,07,12,08,02,16.40
2012,07,12,08,03,16.40
2012,07,12,08,04,16.40
2012,07,12,08,05,16.40
2012,07,12,08,06,16.30
2012,07,12,08,07,16.30
2012,07,12,08,08,16.40
2012,07,12,08,09,16.40
2012,07,12,08,10,16.40
2012,07,12,08,11,16.50
2012,07,12,08,12,16.60
2012,07,12,08,13,16.60
2012,07,12,08,14,16.60
2012,07,12,08,15,16.70
2012,07,12,08,16,16.70
2012,07,12,08,17,16.70
2012,07,12,08,18,16.70
2012,07,12,08,19,16.70
2012,07,12,08,20,16.80
2012,07,12,08,21,16.90
2012,07,12,08,22,17.00
2012,07,12,08,23,17.00
2012,07,12,08,24,17.10
2012,07,12,08,25,17.20
2012,07,12,08,26,17.20
2012,07,12,08,27,17.30
2012,07,12,08,28,17.30
2012,07,12,08,29,17.30
2012,07,12,08,30,17.20
2012,07,12,08,31,17.20
2012,07,12,08,32,17.30
2012,07,12,08,33,17.30
2012,07,12,08,34,17.20
2012,07,12,08,35,17.20
2012,07,12,08,36,17.30
2012,07,12,08,37,17.30
2012,07,12,08,38,17.30
2012,07,12,08,39,17.30
2012,07,12,08,40,17.20
2012,07,12,08,41,17.20
2012,07,12,08,42,17.30
2012,07,12,08,43,17.40
2012,07,12,08,44,17.50
2012,07,12,08,45,17.50
2012,07,12,08,46,17.50
2012,07,12,08,47,17.50
2012,07,12,08,48,17.60
2012,07,12,08,49,17.70
2012,07,12,08,50,17.70
2012,07,12,08,51,17.80
2012,07,12,08,52,17.90
2012,07,12,08,53,17.90
2012,07,12,08,54,18.00
2012,07,12,08,55,18.20
2012,07,12,08,56,18.30
2012,07,12,08,57,18.30
2012,07,12,08,58,18.30
2012,07,12,08,59,18.30
2012,07,12,09,00,18.20
2012,07,12,09,01,18.30
2012,07,12,09,02,18.40
2012,07,12,09,03,18.40
2012,07,12,09,04,18.40
2012,07,12,09,05,18.50
2012,07,12,09,06,18.50
2012,07,12,09,07,18.60
2012,07,12,09,08,18.60
2012,07,12,09,09,18.60
2012,07,12,09,10,18.60
2012,07,12,09,11,18.60
2012,07,12,09,12,18.50
2012,07,12,09,13,18.50
2012,07,12,09,14,18.60
2012,07,12,09,15,18.60
2012,07,12,09,16,18.60
2012,07,12,09,17,18.60
2012,07,12,09,18,18.60
2012,07,12,09,19,18.70
2012,07,12,09,20,18.80
2012,07,12,09,21,18.90
2012,07,12,09,22,18.90
2012,07,12,09,23,18.90
2012,07,12,09,24,18.90
2012,07,12,09,25,18.90
2012,07,12,09,26,18.90
2012,07,12,09,27,18.90
2012,07,12,09,28,19.00
2012,07,12,09,29,19.10
2012,07,12,09,30,19.10
2012,07,12,09,31,19.30
2012,07,12,09,32,19.30
2012,07,12,09,33,19.40
2012,07,12,09,34,19.50
2012,07,12,09,35,19.60
2012,07,12,09,36,19.70
2012,07,12,09,37,19.80
2012,07,12,09,38,19.90
2012,07,12,09,39,19.90
2012,07,12,09,40,19.90
2012,07,12,09,41,19.90
2012,07,12,09,42,19.90
2012,07,12,09,43,19.90
2012,07,12,09,44,19.80
2012,07,12,09,45,19.70
2012,07,12,09,46,19.70
2012,07,12,09,47,19.60
2012,07,12,09,48,19.60
2012,07,12,09,49,19.60
2012,07,12,09,50,19.60
2012,07,12,09,51,19.60
2012,07,12,09,52,19.70
2012,07,12,09,53,19.80
2012,07,12,09,54,19.80
2012,07,12,09,55,19.80
2012,07,12,09,56,19.90
2012,07,12,09,57,20.00
2012,07,12,09,58,20.10
2012,07,12,09,59,20.20
2012,07,12,10,00,20.30
2012,07,12,10,01,20.40
2012,07,12,10,02,20.40
2012,07,12,10,03,20.30
2012,07,12,10,04,20.20
2012,07,12,10,05,20.20
2012,07,12,10,06,20.20
2012,07,12,10,07,20.20
2012,07,12,10,08,20.20
2012,07,12,10,09,20.20
2012,07,12,10,10,20.20
2012,07,12,10,11,20.20
2012,07,12,10,12,20.20
2012,07,12,10,13,20.20
2012,07,12,10,14,20.20
2012,07,12,10,15,20.20
2012,07,12,10,16,20.10
2012,07,12,10,17,20.00
2012,07,12,10,18,19.90
2012,07,12,10,19,19.90
2012,07,12,10,20,19.90
2012,07,12,10,21,19.90
2012,07,12,10,22,19.90
2012,07,12,10,23,19.90
2012,07,12,10,24,19.90
2012,07,12,10,25,20.00
2012,07,12,10,26,20.00
2012,07,12,10,27,20.00
2012,07,12,10,28,20.10
2012,07,12,10,29,20.10
2012,07,12,10,30,20.10
2012,07,12,10,31,20.20
2012,07,12,10,32,20.20
2012,07,12,10,33,20.20
2012,07,12,10,34,20.20
2012,07,12,10,35,20.20
2012,07,12,10,36,20.00
2012,07,12,10,37,19.90
2012,07,12,10,38,19.90
2012,07,12,10,39,19.90
2012,07,12,10,40,19.90
2012,07,12,10,41,19.80
2012,07,12,10,42,19.80
2012,07,12,10,43,19.80
2012,07,12,10,44,19.90
2012,07,12,10,45,19.90
2012,07,12,10,46,19.90
2012,07,12,10,47,19.90
2012,07,12,10,48,20.10
2012,07,12,10,49,20.20
2012,07,12,10,50,20.30
2012,07,12,10,51,20.50
2012,07,12,10,52,20.50
2012,07,12,10,53,20.40
2012,07,12,10,54,20.40
2012,07,12,10,55,20.40
2012,07,12,10,56,20.40
2012,07,12,10,57,20.40
2012,07,12,10,58,20.40
2012,07,12,10,59,20.40
2012,07,12,11,00,20.40
2012,07,12,11,01,20.40
2012,07,12,11,02,20.40
2012,07,12,11,03,20.40
2012,07,12,11,04,20.40
2012,07,12,11,05,20.50
2012,07,12,11,06,20.60
2012,07,12,11,07,20.70
2012,07,12,11,08,20.80
2012,07,12,11,09,20.80
2012,07,12,11,10,20.80
2012,07,12,11,11,20.90
2012,07,12,11,12,20.90
2012,07,12,11,13,21.10
2012,07,12,11,14,21.10
2012,07,12,11,15,21.10
2012,07,12,11,16,21.20
2012,07,12,11,17,21.30
2012,07,12,11,18,21.40
2012,07,12,11,19,21.50
2012,07,12,11,20,21.60
2012,07,12,11,21,21.60
2012,07,12,11,22,21.60
2012,07,12,11,23,21.60
2012,07,12,11,24,21.50
2012,07,12,11,25,21.50
2012,07,12,11,26,21.60
2012,07,12,11,27,21.70
2012,07,12,11,28,21.70
2012,07,12,11,29,21.80
2012,07,12,11,30,21.90
2012,07,12,11,31,22.00
2012,07,12,11,32,22.20
2012,07,12,11,33,22.30
2012,07,12,11,34,22.50
2012,07,12,11,35,22.60
2012,07,12,11,36,22.70
2012,07,12,11,37,22.70
2012,07,12,11,38,22.70
2012,07,12,11,39,22.70
2012,07,12,11,40,22.60
2012,07,12,11,41,22.60
2012,07,12,11,42,22.50
2012,07,12,11,43,22.50
2012,07,12,11,44,22.40
2012,07,12,11,45,22.40
2012,07,12,11,46,22.30
2012,07,12,11,47,22.30
2012,07,12,11,48,22.20
2012,07,12,11,49,22.20
2012,07,12,11,50,22.20
2012,07,12,11,51,22.10
2012,07,12,11,52,22.10
2012,07,12,11,53,22.10
2012,07,12,11,54,22.20
2012,07,12,11,55,22.20
2012,07,12,11,56,22.10
2012,07,12,11,57,22.10
2012,07,12,11,58,22.10
2012,07,12,11,59,22.10
2012,07,12,12,00,22.20
2012,07,12,12,01,22.30
2012,07,12,12,02,22.50
2012,07,12,12,03,22.60
2012,07,12,12,04,22.60
2012,07,12,12,05,22.60
2012,07,12,12,06,22.40
2012,07,12,12,07,22.20
2012,07,12,12,08,22.10
2012,07,12,12,09,22.10
2012,07,12,12,10,22.20
2012,07,12,12,11,22.40
2012,07,12,12,12,22.60
2012,07,12,12,13,22.60
2012,07,12,12,14,22.70
2012,07,12,12,15,22.70
2012,07,12,12,16,22.70
2012,07,12,12,17,22.60
2012,07,12,12,18,22.70
2012,07,12,12,19,22.60
2012,07,12,12,20,22.50
2012,07,12,12,21,22.30
2012,07,12,12,22,22.10
2012,07,12,12,23,22.00
2012,07,12,12,24,22.00
2012,07,12,12,25,21.90
2012,07,12,12,26,21.80
2012,07,12,12,27,21.80
2012,07,12,12,28,21.70
2012,07,12,12,29,21.70
2012,07,12,12,30,21.60
2012,07,12,12,31,21.60
2012,07,12,12,32,21.70
2012,07,12,12,33,21.70
2012,07,12,12,34,21.90
2012,07,12,12,35,21.90
2012,07,12,12,36,21.90
2012,07,12,12,37,22.00
2012,07,12,12,38,22.10
2012,07,12,12,39,22.10
2012,07,12,12,40,22.00
2012,07,12,12,41,22.00
2012,07,12,12,42,21.90
2012,07,12,12,43,21.90
2012,07,12,12,44,21.90
2012,07,12,12,45,21.90
2012,07,12,12,46,21.90
2012,07,12,12,47,22.00
2012,07,12,12,48,22.00
2012,07,12,12,49,22.20
2012,07,12,12,50,22.30
2012,07,12,12,51,22.40
2012,07,12,12,52,22.50
2012,07,12,12,53,22.60
2012,07,12,12,54,22.70
2012,07,12,12,55,22.60
2012,07,12,12,56,22.80
2012,07,12,12,57,22.70
2012,07,12,12,58,22.60
2012,07,12,12,59,22.50
2012,07,12,13,00,22.50
2012,07,12,13,01,22.40
2012,07,12,13,02,22.40
2012,07,12,13,03,22.50
2012,07,12,13,04,22.50
2012,07,12,13,05,22.50
2012,07,12,13,06,22.50
2012,07,12,13,07,22.50
2012,07,12,13,08,22.50
2012,07,12,13,09,22.50
2012,07,12,13,10,22.50
2012,07,12,13,11,22.50
2012,07,12,13,12,22.60
2012,07,12,13,13,22.80
2012,07,12,13,14,22.90
2012,07,12,13,15,22.90
2012,07,12,13,16,22.90
2012,07,12,13,17,23.00
2012,07,12,13,18,23.10
2012,07,12,13,19,23.10
2012,07,12,13,20,23.20
2012,07,12,13,21,23.20
2012,07,12,13,22,23.10
2012,07,12,13,23,22.90
2012,07,12,13,24,22.80
2012,07,12,13,25,22.80
2012,07,12,13,26,22.80
2012,07,12,13,27,22.80
2012,07,12,13,28,22.80
2012,07,12,13,29,22.80
2012,07,12,13,30,22.70
2012,07,12,13,31,22.70
2012,07,12,13,32,22.70
2012,07,12,13,33,22.70
2012,07,12,13,34,22.70
2012,07,12,13,35,22.60
2012,07,12,13,36,22.60
2012,07,12,13,37,22.70
2012,07,12,13,38,22.70
2012,07,12,13,39,22.60
2012,07,12,13,40,22.60
2012,07,12,13,41,22.60
2012,07,12,13,42,22.70
2012,07,12,13,43,22.80
2012,07,12,13,44,22.70
2012,07,12,13,45,22.80
2012,07,12,13,46,22.80
2012,07,12,13,47,22.80
2012,07,12,13,48,22.90
2012,07,12,13,49,22.90
2012,07,12,13,50,22.90
2012,07,12,13,51,22.90
2012,07,12,13,52,22.90
2012,07,12,13,53,22.90
2012,07,12,13,54,22.90
2012,07,12,13,55,22.90
2012,07,12,13,56,22.90
2012,07,12,13,57,22.90
2012,07,12,13,58,23.00
2012,07,12,13,59,23.10
2012,07,12,14,00,23.20
2012,07,12,14,01,23.00
2012,07,12,14,02,22.90
2012,07,12,14,03,22.90
2012,07,12,14,04,22.70
2012,07,12,14,05,22.60
2012,07,12,14,06,22.60
2012,07,12,14,07,22.70
2012,07,12,14,08,22.70
2012,07,12,14,09,22.60
2012,07,12,14,10,22.60
2012,07,12,14,11,22.60
2012,07,12,14,12,22.60
2012,07,12,14,13,22.50
2012,07,12,14,14,22.50
2012,07,12,14,15,22.60
2012,07,12,14,16,22.60
2012,07,12,14,17,22.60
2012,07,12,14,18,22.70
2012,07,12,14,19,22.70
2012,07,12,14,20,22.70
2012,07,12,14,21,22.60
2012,07,12,14,22,22.50
2012,07,12,14,23,22.40
2012,07,12,14,24,22.50
2012,07,12,14,25,22.50
2012,07,12,14,26,22.70
2012,07,12,14,27,22.80
2012,07,12,14,28,22.90
2012,07,12,14,29,23.00
2012,07,12,14,30,23.10
2012,07,12,14,31,23.00
2012,07,12,14,32,22.90
2012,07,12,14,33,22.90
2012,07,12,14,34,22.80
2012,07,12,14,35,22.80
2012,07,12,14,36,22.70
2012,07,12,14,37,22.70
2012,07,12,14,38,22.70
2012,07,12,14,39,22.70
2012,07,12,14,40,22.80
2012,07,12,14,41,22.90
2012,07,12,14,42,22.90
2012,07,12,14,43,23.00
2012,07,12,14,44,23.10
2012,07,12,14,45,23.10
2012,07,12,14,46,23.10
2012,07,12,14,47,23.10
2012,07,12,14,48,23.20
2012,07,12,14,49,23.10
2012,07,12,14,50,23.00
2012,07,12,14,51,23.00
2012,07,12,14,52,23.10
2012,07,12,14,53,23.10
2012,07,12,14,54,23.10
2012,07,12,14,55,23.10
2012,07,12,14,56,23.20
2012,07,12,14,57,23.20
2012,07,12,14,58,23.20
2012,07,12,14,59,23.20
2012,07,12,15,00,23.20
2012,07,12,15,01,23.30
2012,07,12,15,02,23.30
2012,07,12,15,03,23.30
2012,07,12,15,04,23.20
2012,07,12,15,05,23.10
2012,07,12,15,06,23.20
2012,07,12,15,07,23.10
2012,07,12,15,08,23.10
2012,07,12,15,09,23.10
2012,07,12,15,10,23.10
2012,07,12,15,11,23.10
2012,07,12,15,12,23.20
2012,07,12,15,13,23.30
2012,07,12,15,14,23.40
2012,07,12,15,15,23.50
2012,07,12,15,16,23.60
2012,07,12,15,17,23.60
2012,07,12,15,18,23.70
2012,07,12,15,19,23.70
2012,07,12,15,20,23.90
2012,07,12,15,21,24.00
2012,07,12,15,22,24.10
2012,07,12,15,23,24.10
2012,07,12,15,24,24.20
2012,07,12,15,25,24.30
2012,07,12,15,26,24.30
2012,07,12,15,27,24.30
2012,07,12,15,28,24.30
2012,07,12,15,29,24.30
2012,07,12,15,30,24.30
2012,07,12,15,31,24.30
2012,07,12,15,32,24.30
2012,07,12,15,33,24.30
2012,07,12,15,34,24.30
2012,07,12,15,35,24.30
2012,07,12,15,36,24.40
2012,07,12,15,37,24.40
2012,07,12,15,38,24.40
2012,07,12,15,39,24.50
2012,07,12,15,40,24.50
2012,07,12,15,41,24.50
2012,07,12,15,42,24.60
2012,07,12,15,43,24.60
2012,07,12,15,44,24.70
2012,07,12,15,45,24.60
2012,07,12,15,46,24.50
2012,07,12,15,47,24.50
2012,07,12,15,48,24.40
2012,07,12,15,49,24.30
2012,07,12,15,50,24.30
2012,07,12,15,51,24.30
2012,07,12,15,52,24.30
2012,07,12,15,53,24.20
2012,07,12,15,54,24.30
2012,07,12,15,55,24.30
2012,07,12,15,56,24.30
2012,07,12,15,57,24.30
2012,07,12,15,58,24.20
2012,07,12,15,59,24.30
2012,07,12,16,00,24.30
2012,07,12,16,01,24.40
2012,07,12,16,02,24.40
2012,07,12,16,03,24.40
2012,07,12,16,04,24.40
2012,07,12,16,05,24.40
2012,07,12,16,06,24.30
2012,07,12,16,07,24.30
2012,07,12,16,08,24.30
2012,07,12,16,09,24.40
2012,07,12,16,10,24.50
2012,07,12,16,11,24.70
2012,07,12,16,12,24.70
2012,07,12,16,13,24.80
2012,07,12,16,14,24.70
2012,07,12,16,15,24.60
2012,07,12,16,16,24.60
2012,07,12,16,17,24.50
2012,07,12,16,18,24.50
2012,07,12,16,19,24.50
2012,07,12,16,20,24.50
2012,07,12,16,21,24.40
2012,07,12,16,22,24.40
2012,07,12,16,23,24.50
2012,07,12,16,24,24.60
2012,07,12,16,25,24.50
2012,07,12,16,26,24.50
2012,07,12,16,27,24.40
2012,07,12,16,28,24.30
2012,07,12,16,29,24.20
2012,07,12,16,30,24.30
2012,07,12,16,31,24.40
2012,07,12,16,32,24.50
2012,07,12,16,33,24.60
2012,07,12,16,34,24.70
2012,07,12,16,35,24.70
2012,07,12,16,36,24.70
2012,07,12,16,37,24.70
2012,07,12,16,38,24.80
2012,07,12,16,39,24.80
2012,07,12,16,40,24.90
2012,07,12,16,41,24.90
2012,07,12,16,42,24.90
2012,07,12,16,43,24.90
2012,07,12,16,44,24.90
2012,07,12,16,45,24.90
2012,07,12,16,46,25.00
2012,07,12,16,47,25.10
2012,07,12,16,48,25.00
2012,07,12,16,49,25.00
2012,07,12,16,50,25.00
2012,07,12,16,51,24.90
2012,07,12,16,52,24.90
2012,07,12,16,53,24.80
2012,07,12,16,54,24.60
2012,07,12,16,55,24.50
2012,07,12,16,56,24.40
2012,07,12,16,57,24.30
2012,07,12,16,58,24.30
2012,07,12,16,59,24.20
2012,07,12,17,00,24.20
2012,07,12,17,01,24.10
2012,07,12,17,02,24.10
2012,07,12,17,03,24.10
2012,07,12,17,04,24.10
2012,07,12,17,05,24.10
2012,07,12,17,06,24.10
2012,07,12,17,07,24.10
2012,07,12,17,08,24.10
2012,07,12,17,09,24.10
2012,07,12,17,10,24.10
2012,07,12,17,11,24.10
2012,07,12,17,12,24.10
2012,07,12,17,13,24.10
2012,07,12,17,14,23.90
2012,07,12,17,15,23.90
2012,07,12,17,16,23.90
2012,07,12,17,17,23.80
2012,07,12,17,18,23.80
2012,07,12,17,19,23.80